Dalaman, Turkey

11:22 PM +03 on April 23, 2017 (GMT +0300)
Dalaman

Weather History for LTBS - November, 2011

Change the Weather History Date:

Friday, November 4, 2011

  Actual Average Record
Temperature  
Mean Temperature 62 °F -  
Max Temperature 72 °F 70 °F 78 °F (2004)
Min Temperature 51 °F 51 °F 46 °F (2006)
Degree Days  
Heating Degree Days 4    
Growing Degree Days 12 (Base 50)    
Moisture  
Dew Point 33 °F    
Average Humidity 36    
Maximum Humidity 62    
Minimum Humidity 17    
Precipitation  
Precipitation 0.00 in - - ()
Sea Level Pressure  
Sea Level Pressure 29.95 in    
Wind  
Wind Speed 14 mph ()    
Max Wind Speed 24 mph    
Max Gust Speed -    
Visibility 6.0 miles    
Events      
Averages and records for this station are not official NWS values.
T = Trace of Precipitation, MM = Missing Value Source: Averaged Metar Reports

Daily Weather History Graph

Daily Weather History Graph

Search for Another Location

Airport or City:

Trip Planner

Search our weather history database for the weather conditions in past years. The results will help you decide how hot, cold, wet, or windy it might be!

Date:

Astronomy

Nov. 04, 2011 Rise Set
Actual Time 6:30 AM EET 5:05 PM EET
Civil Twilight 6:04 AM EET 5:32 PM EET
Nautical Twilight 5:33 AM EET 6:03 PM EET
Astronomical Twilight 5:03 AM EET 6:33 PM EET
Moon 1:39 PM EET (11/4) 12:32 AM EET (11/4)
Length of Visible Light 11h 28m
Length of Day
10h 34m
Waxing Gibbous, 67% of the Moon is Illuminated
Nov 4
Waxing Gibbous
Nov 10
Full
Nov 18
Last Quarter
Nov 25
New
Dec 2
First Quarter

Hourly Weather History & Observations

Time (EET) Temp. Dew Point Humidity Pressure Visibility Wind Dir Wind Speed Gust Speed Precip Events Conditions
12:20 AM 57.2 °F 28.4 °F 33% 29.86 in - North 19.6 mph - N/A   Clear
12:50 AM 57.2 °F 28.4 °F 33% 29.86 in - North 16.1 mph - N/A   Clear
1:20 AM 57.2 °F 28.4 °F 33% 29.86 in - North 16.1 mph - N/A   Clear
1:50 AM 57.2 °F 30.2 °F 36% 29.86 in - North 19.6 mph - N/A   Clear
2:00 AM 57 °F 28 °F 21% 29.88 in 6 mi North 19.6 mph - -  
2:20 AM 57.2 °F 28.4 °F 33% 29.86 in - North 19.6 mph - N/A   Clear
2:50 AM 55.4 °F 28.4 °F 36% 29.86 in - North 18.4 mph - N/A   Clear
3:20 AM 53.6 °F 30.2 °F 41% 29.86 in - North 18.4 mph - N/A   Clear
3:50 AM 55.4 °F 28.4 °F 36% 29.89 in - North 18.4 mph - N/A   Clear
4:20 AM 55.4 °F 30.2 °F 38% 29.89 in - North 20.7 mph - N/A   Clear
4:50 AM 55.4 °F 28.4 °F 36% 29.89 in - North 16.1 mph - N/A   Clear
5:20 AM 57.2 °F 28.4 °F 33% 29.89 in - North 20.7 mph - N/A   Clear
5:50 AM 55.4 °F 28.4 °F 36% 29.89 in - North 24.2 mph - N/A   Clear
6:20 AM 55.4 °F 28.4 °F 36% 29.92 in - North 20.7 mph - N/A   Clear
6:50 AM 55.4 °F 30.2 °F 38% 29.92 in - North 18.4 mph - N/A   Clear
7:20 AM 55.4 °F 32.0 °F 41% 29.95 in - North 18.4 mph - N/A   Clear
7:50 AM 57.2 °F 32.0 °F 38% 29.95 in - NNE 18.4 mph - N/A   Clear
8:00 AM 57 °F 31 °F 24% 29.97 in 6 mi NNE 18.4 mph - -  
8:20 AM 59.0 °F 32.0 °F 36% 29.95 in - North 17.3 mph - N/A   Clear
8:50 AM 59.0 °F 33.8 °F 39% 29.95 in - NNE 16.1 mph - N/A   Clear
9:20 AM 60.8 °F 32.0 °F 34% 29.95 in - NNE 17.3 mph - N/A   Clear
9:50 AM 62.6 °F 32.0 °F 32% 29.98 in - NNE 15.0 mph - N/A   Clear
10:20 AM 64.4 °F 33.8 °F 32% 29.95 in - NNE 21.9 mph - N/A   Clear
10:50 AM 66.2 °F 33.8 °F 30% 29.95 in - NNE 18.4 mph - N/A   Clear
11:20 AM 68.0 °F 32.0 °F 26% 29.95 in - NNE 17.3 mph - N/A   Clear
11:50 AM 68.0 °F 33.8 °F 28% 29.95 in - NNE 19.6 mph - N/A   Clear
12:20 PM 69.8 °F 33.8 °F 27% 29.95 in - NNE 16.1 mph - N/A   Clear
12:50 PM 69.8 °F 37.4 °F 31% 29.95 in - NNE 13.8 mph - N/A   Clear
1:20 PM 71.6 °F 35.6 °F 27% 29.95 in - North 10.4 mph - N/A   Clear
1:50 PM 71.6 °F 33.8 °F 25% 29.95 in - North 8.1 mph - N/A   Clear
2:00 PM 72 °F 37 °F 17% 29.95 in 6 mi North 8.1 mph - -  
2:20 PM 71.6 °F 32.0 °F 23% 29.95 in - North 4.6 mph - N/A   Clear
2:50 PM 71.6 °F 32.0 °F 23% 29.95 in - North 8.1 mph - N/A   Clear
3:20 PM 71.6 °F 33.8 °F 25% 29.95 in - NNW 9.2 mph - N/A   Clear
3:50 PM 71.6 °F 33.8 °F 25% 29.95 in - NNW 6.9 mph - N/A   Clear
4:20 PM 69.8 °F 35.6 °F 28% 29.95 in - NW 6.9 mph - N/A   Clear
4:50 PM 68.0 °F 35.6 °F 30% 29.95 in - NW 4.6 mph - N/A   Clear
5:20 PM 60.8 °F 41.0 °F 48% 29.98 in - ENE 5.8 mph - N/A   Clear
5:50 PM 59.0 °F 39.2 °F 48% 29.98 in - NE 4.6 mph - N/A   Clear
6:20 PM 59.0 °F 39.2 °F 48% 29.98 in - NE 5.8 mph - N/A   Clear
6:50 PM 57.2 °F 41.0 °F 55% 29.98 in - NNE 8.1 mph - N/A   Clear
7:20 PM 57.2 °F 39.2 °F 51% 29.98 in - North 13.8 mph - N/A   Clear
7:50 PM 57.2 °F 37.4 °F 48% 30.01 in - NNE 9.2 mph - N/A   Clear
8:00 PM 57 °F 38 °F 37% 30.01 in 6 mi NNE 9.2 mph - -  
8:20 PM 60.8 °F 35.6 °F 39% 30.01 in - North 10.4 mph - N/A   Clear
8:50 PM 59.0 °F 35.6 °F 42% 30.01 in - North 8.1 mph - N/A   Clear
9:20 PM 60.8 °F 33.8 °F 36% 30.04 in - North 5.8 mph - N/A   Clear
9:50 PM 60.8 °F 33.8 °F 36% 30.04 in - NW 8.1 mph - N/A   Clear
10:20 PM 57.2 °F 33.8 °F 41% 30.04 in - NNE 3.5 mph - N/A   Clear
10:50 PM 51.8 °F 39.2 °F 62% 30.04 in - East 4.6 mph - N/A   Clear
11:20 PM 53.6 °F 37.4 °F 54% 30.04 in - ENE 3.5 mph - N/A   Clear
11:50 PM 55.4 °F 35.6 °F 47% 30.04 in - NNE 4.6 mph - N/A   Clear